This is the latest recevied weather packets stored in our database for station/object CQ0XSM-11. If no packets are shown the sender has not sent any weather packets the latest 10 day(s).
| Time | Temp. | Humidity | Pressure | Rain* | Wind** | Luminosity | Snow |
|---|---|---|---|---|---|---|---|
| 1777668623 | 12.78° C | 74% | 998.8 hPa | 0 mm | - | - | - |
| 1777668328 | 12.78° C | 73% | 998.8 hPa | 0 mm | - | - | - |
| 1777667696 | 13.33° C | 72% | 998.6 hPa | 0 mm | - | - | - |
| 1777667429 | 13.33° C | 72% | 998.4 hPa | 0 mm | - | - | - |
| 1777667093 | 13.33° C | 74% | 998.5 hPa | 0 mm | - | - | - |
| 1777666810 | 13.33° C | 74% | 998.5 hPa | 0 mm | - | - | - |
| 1777666509 | 13.33° C | 77% | 998.4 hPa | 0 mm | - | - | - |
| 1777666202 | 13.89° C | 77% | 998.5 hPa | 0 mm | - | - | - |
| 1777665896 | 13.89° C | 77% | 998.4 hPa | 0 mm | - | - | - |
| 1777665603 | 13.89° C | 75% | 998.4 hPa | 0 mm | - | - | - |
| 1777665269 | 13.89° C | 74% | 998.2 hPa | 0 mm | - | - | - |
| 1777664700 | 14.44° C | 73% | 998.2 hPa | 0 mm | - | - | - |
| 1777664387 | 14.44° C | 72% | 998.2 hPa | 0 mm | - | - | - |
| 1777664061 | 14.44° C | 71% | 998.1 hPa | 0 mm | - | - | - |
| 1777663455 | 15° C | 68% | 998 hPa | 0 mm | - | - | - |
| 1777663180 | 15° C | 67% | 998 hPa | 0 mm | - | - | - |
| 1777662863 | 15° C | 67% | 997.9 hPa | 0 mm | - | - | - |
| 1777662577 | 15.56° C | 66% | 997.8 hPa | 0 mm | - | - | - |
| 1777662247 | 15.56° C | 65% | 997.8 hPa | 0 mm | - | - | - |
| 1777661968 | 15.56° C | 65% | 997.8 hPa | 0 mm | - | - | - |
| 1777661638 | 16.11° C | 65% | 997.8 hPa | 0 mm | - | - | - |
| 1777661335 | 16.11° C | 63% | 997.8 hPa | 0 mm | - | - | - |
| 1777661049 | 16.11° C | 62% | 997.8 hPa | 0 mm | - | - | - |
| 1777660750 | 16.11° C | 60% | 997.7 hPa | 0 mm | - | - | - |
| 1777660423 | 16.67° C | 58% | 997.6 hPa | 0 mm | - | - | - |
* Rain since midnight (hover to see other rain measurements)
** Current wind speed in m/s (hover to see current wind gust speed)